This demonstration page uses our WeatherBlox Daily Observations layout. Learn more.

36.19886, -115.1175

Hourly Observations for July 13, 2018

Temp ( °F °C ) Dew Point ( °F °C ) Humidity (%) Winds ( mph kmh ) Pressure ( in mb ) Visibility ( mi km ) Precip ( " mm )
12:53 am 00:53 Clear 84 28.9 63 17.2 49 49 SE 5 7 29.97 1015 10 16.09344 0 0
1:53 am 01:53 Clear 83 28.3 63 17.2 51 51 E 3 6 29.97 1015 10 16.09344 0 0
2:53 am 02:53 Clear 82 27.8 63 17.2 53 53 ESE 3 6 29.97 1015 10 16.09344 0 0
3:53 am 03:53 Clear 82 27.8 63 17.2 53 53 Calm 29.97 1015 10 16.09344 0 0
4:53 am 04:53 Clear 82 27.8 64 17.8 55 55 Calm 29.97 1015 10 16.09344 0 0
5:53 am 05:53 Sunny 81 27.2 64 17.8 57 57 Calm 30 1016 10 16.09344 0 0
6:53 am 06:53 Sunny 82 27.8 64 17.8 55 55 Calm 30 1016 10 16.09344 0 0
7:53 am 07:53 Sunny 83 28.3 64 17.8 53 53 ESE 3 6 30.03 1017 10 16.09344 0 0
8:53 am 08:53 Sunny 84 28.9 63 17.2 49 49 ESE 3 6 30.03 1017 10 16.09344 0 0
9:53 am 09:53 Sunny 86 30 63 17.2 46 46 ESE 5 7 30.03 1017 10 16.09344 0 0
10:53 am 10:53 Sunny 87 30.6 63 17.2 45 45 E 5 7 30.03 1017 10 16.09344 0 0
11:53 am 11:53 Sunny 90 32.2 63 17.2 41 41 E 5 7 30.03 1017 10 16.09344 0 0
12:53 pm 12:53 Sunny 91 32.8 62 16.7 38 38 SSE 6 9 30 1016 10 16.09344 0 0
1:53 pm 13:53 Sunny 96 35.6 61 16.1 31 31 N 6 9 29.94 1014 10 16.09344 0 0
2:53 pm 14:53 Sunny 97 36.1 61 16.1 30 30 N 6 9 29.91 1013 10 16.09344 0 0
3:53 pm 15:53 Sunny 97 36.1 61 16.1 30 30 SW 14 22 29.91 1013 10 16.09344 0 0
4:16 pm 16:16 Sunny with Thunderstorms 96 35.6 61 16.1 31 31 SW 14 22 29.77 1008 10 16.09344 0 0
4:37 pm 16:37 Sunny with Nearby Thunderstorms 95 35 61 16.1 32 32 SSW 13 20 29.77 1008 10 16.09344 0 0
4:53 pm 16:53 Sunny with Nearby Thunderstorms 94 34.4 60 15.6 32 32 SSW 9 15 29.88 1012 10 16.09344 0 0
5:02 pm 17:02 Sunny 94 34.4 60 15.6 32 32 S 12 19 29.77 1008 10 16.09344 0 0
5:53 pm 17:53 Sunny 94 34.4 57 13.9 29 29 SW 9 15 29.88 1012 10 16.09344 0 0
6:53 pm 18:53 Sunny 94 34.4 59 15 31 31 SSW 10 17 29.88 1012 10 16.09344 0 0
7:53 pm 19:53 Sunny 94 34.4 58 14.4 30 30 S 7 11 29.91 1013 10 16.09344 0 0
8:53 pm 20:53 Clear 93 33.9 60 15.6 33 33 SSE 5 7 29.91 1013 10 16.09344 0 0
9:53 pm 21:53 Partly Cloudy 92 33.3 61 16.1 36 36 E 5 7 29.91 1013 10 16.09344 0 0
10:53 pm 22:53 Clear 91 32.8 61 16.1 37 37 E 5 7 29.94 1014 10 16.09344 0 0
11:53 pm 23:53 Clear 89 31.7 62 16.7 41 41 S 5 7 29.91 1013 10 16.09344 0 0

Powered by AerisWeather